Powrót do katalogu

DELTA 1 DEB

AktywnySSO
NORAD 12200·DEBRIS·🇺🇸 United States

Wystrzelony Mar 5, 1978 z Vandenberg Space Force Base

Loading…

Następne Przeloty (najbliższe 24 godziny)

TLE

ŚwieżeSource: Space-Track

Epoka: Sep 14, 2026, 10:25 UTC

1 12200U 78026AR  26257.43429771  .00000106  00000-0  53938-4 0  9996
2 12200  98.7552 240.8045 0108854 256.7169 256.9210 14.31768146376820

Śledź DELTA 1 DEB w czasie rzeczywistym z AllMySat

Download on the App Store